Regional Weather Roundup
Issued by NWS Newport/Morehead, NC

Current Version | Previous Version | Text Only | Print | Product List | Glossary On
Versions: 1 2 3 4 5 6 7 8 9 10 11 12 13 14 15 16 17 18 19 20 21 22 23 24 25 26 27 28 29 30 31 32 33 34 35 36 37 38 39 40 41 42 43 44 45 46 47 48 49 50
000 ASUS42 KMHX 012310 RWRMHX WEATHER ROUNDUP FOR EASTERN NORTH CAROLINA NATIONAL WEATHER SERVICE NEWPORT/MOREHEAD CITY NC 700 PM EDT FRI AUG 01 2014 NOTE: "FAIR" INDICATES FEW OR NO CLOUDS BELOW 12,000 FEET WITH NO SIGNIFICANT WEATHER AND/OR OBSTRUCTIONS TO VISIBILITY NCZ015>017-031-032-045>047-102-103-020000- NORTH COAST CITY SKY/WX TMP DP RH WIND PRES REMARKS EDENTON NOT AVBL ELIZABETH CITY CLOUDY 74 71 91 SE10 30.08F KITTY HAWK NOT AVBL MANTEO NOT AVBL $$ NCZ045>047-081-094-103-104-020000- CENTRAL COAST CITY SKY/WX TMP DP RH WIND PRES REMARKS FRISCO LGT RAIN 74 74 100 SE10 30.09F FOG SWANQUARTER N/A 75 N/A N/A E8G18 30.03S $$ NCZ095-097-098-100-101-020000- SOUTHERN COAST CITY SKY/WX TMP DP RH WIND PRES REMARKS BEAUFORT CLOUDY 76 73 91 E7 30.06S CEDAR ISLAND N/A 75 N/A N/A E13 30.09F JACKSONVILLE CLOUDY 77 74 90 SE9 30.04S NEWPORT NOT AVBL PINEY ISLAND CLOUDY 76 75 97 SE9 30.06F WILMINGTON CLOUDY 79 72 79 CALM 30.03S $$ NCZ011>013-027>030-043-044-078>080-089-090>093-098-020000- COASTAL PLAIN CITY SKY/WX TMP DP RH WIND PRES REMARKS AHOSKIE CLOUDY 66 64 91 NE5 30.09S CLINTON NOT AVBL ELIZABETHTOWN NOT AVBL GOLDSBORO RAIN 72 72 100 NW6 30.03R VSB 1 GREENVILLE CLOUDY 70 70 100 NE5 30.07S HAVELOCK CLOUDY 76 72 87 SE12 30.06S KENANSVILLE CLOUDY 76 73 93 CALM 30.04R KINSTON CLOUDY 73 73 100 E5 30.06R NEW BERN CLOUDY 77 72 84 E8 30.06S RICHLANDS CLOUDY 77 72 83 SE7 30.04S ROANOKE RAPIDS NOT AVBL ROCKY MOUNT LGT RAIN 67 66 97 NE7 30.08R FOG WASHINGTON NOT AVBL WHITEVILLE CLOUDY 79 74 84 CALM 30.00F $$ AMZ130-135-150-152-154-156-158-170-250-252-270-ANZ085-086-088-633-658-670-020000- MARINE OBSERVATIONS STATION/POSITION TIME TEMP WIND PRES WAVE SWELL AIR SEA DIR/SP/G HT/PER HT/PER (UTC) (F) (DEG/KT/KT) (MB) (FT/S) (FT/S) CHESAPEAKE LIGHT NOT AVBL BUOY 44014 2300 76 78 110/ 16/ 17 1019.6 4/ 6 2/12 DUCK 2300 74 76 130/ 15/ 17 1018.0 2E DUCK 2200 N/A 4/ 6 OREGON INLET 2300 73 78 110/ 9/ 12 1019.0 BUOY 44095 2300 78 N/A 3/ 7 20E OREGON INLET NOT AVBL HATTERAS CG 2300 75 79 110/ 9/ 12 1018.8 DIAMOND BUOY 2300 VRB 8/ 10 1019.4 3/ 7 3/ 7 CAPE LOOKOUT 2200 74 80/ 11/ 12 1018.0 BEAUFORT LAB 2300 75 80 100/ 9/ 11 1017.4 30 SE NEW RIVER 2200 79 81 190/ 8/ 8 1017.9 5 SE WRIGHTSVILL 2200 76 81 200/ 10/ 12 N/A BUOY 41002 2153 81 81 150/ 10/ 12 1019.1 4/ 7 3/ 7 BUOY 41004 2300 80 82 150/ 16/ 17 1014.3 5/ 6 2/13 $$

USA.gov is the U.S. government's official web portal to all federal, state and local government web resources and services.